DW1850 Weather Reports


Display with metric or nautical units.
time (UTC)temp
F
wind
direction
speed
MPH
gust
MPH
rain 1hr
in
rain 24hr
in
rain mn
in
humidity
%
barometer
mb
20260902040003 87 101 0.0 6.0 0.00 0.00 0.00 62 1012.0
20260902033003 88 101 0.0 6.0 0.00 0.00 0.00 61 1011.5
20260902023001 90 99 0.0 8.0 0.00 0.00 0.00 56 1010.6
20260902020000 91 98 0.0 9.0 0.00 0.00 0.00 51 1010.1
20260902013000 93 96 0.0 9.0 0.00 0.00 0.00 48 1009.7
20260902005959 94 95 0.0 0.0 0.00 0.00 0.00 47 1009.3
20260902002958 95 96 0.0 7.0 0.00 0.00 0.00 44 1009.5
20260901235957 96 94 2.0 9.0 0.00 0.00 0.00 44 1009.7
20260901232956 99 101 0.0 9.0 0.00 0.00 0.00 42 1009.5
20260901225956 99 92 0.0 10.0 0.00 0.00 0.00 42 1009.5
20260901222955 99 81 0.0 8.0 0.00 0.00 0.00 43 1009.7
20260901215954 101 79 2.0 8.0 0.00 0.00 0.00 41 1009.8
20260901212953 101 81 0.0 10.0 0.00 0.00 0.00 39 1009.9
20260901205953 100 103 2.0 8.0 0.00 0.00 0.00 41 1010.1
20260901202952 100 105 0.0 13.0 0.00 0.00 0.00 40 1010.6
20260901195951 102 101 0.0 9.0 0.00 0.00 0.00 40 1011.1
20260901192950 101 104 0.0 10.0 0.00 0.00 0.00 42 1011.5
20260901185950 98 123 1.0 10.0 0.00 0.00 0.00 44 1011.8
20260901172947 95 128 0.0 9.0 0.00 0.00 0.00 49 1013.2
20260901165947 94 156 0.0 7.0 0.00 0.00 0.00 54 1013.7
20260901162946 92 156 0.0 2.0 0.00 0.00 0.00 57 1013.8
20260901152944 87 156 1.0 5.0 0.00 0.00 0.00 69 1013.9
20260901145943 84 156 0.0 7.0 0.00 0.00 0.00 76 1013.8
20260901135942 80 156 2.0 5.0 0.00 0.00 0.00 86 1014.2
20260901132941 78 156 0.0 0.0 0.00 0.00 0.00 91 1013.9
20260901130010 76 156 0.0 0.0 0.00 0.00 0.00 91 1013.4
20260901123009 76 156 0.0 0.0 0.00 0.00 0.00 90 1013.3
20260901120009 76 156 0.0 0.0 0.00 0.00 0.00 90 1013.1
20260901112938 77 156 0.0 2.0 0.00 0.00 0.00 88 1013.1
20260901110007 78 156 0.0 5.0 0.00 0.00 0.00 88 1013.1
20260901103006 78 156 0.0 7.0 0.00 0.00 0.00 86 1013.0
20260901100005 79 156 0.0 5.0 0.00 0.00 0.00 85 1012.8
20260901093005 79 156 0.0 5.0 0.00 0.00 0.00 84 1013.3
20260901090004 79 156 0.0 2.0 0.00 0.00 0.00 83 1013.1
20260901083003 80 156 0.0 5.0 0.00 0.00 0.00 81 1013.0
20260901080002 80 156 1.0 2.0 0.00 0.00 0.00 79 1013.0
20260901073002 81 156 0.0 6.0 0.00 0.00 0.00 77 1013.1
20260901070001 82 156 4.0 9.0 0.00 0.00 0.00 75 1013.2
20260901063000 83 155 4.0 10.0 0.00 0.00 0.00 73 1013.0
20260901055959 84 157 4.0 12.0 0.00 0.00 0.00 71 1012.8
20260901052959 85 150 2.0 9.0 0.00 0.00 0.00 69 1012.8